Southwest Harbor, ME

6:30 AM EST on December 04, 2016 (GMT -0500)
Fire Department | | Change Station

Elev 81 ft 44.29 °N, 68.33 °W | Updated 8 seconds ago

Overcast
Overcast
31.3 °F
Feels Like 31 °F
N
3.0
Wind Variable Wind from NNW
Gusts 6.0 mph

Today
High -- | Low -- °F
--% Chance of Precip.
Yesterday
High -- | Low -- °F
Precip. -- in
Pressure 30.06 in
Visibility 10.0 miles
Clouds Overcast 3400 ft
Windchill 31 °F
Dew Point 24 °F
Humidity 74%
Rainfall 0.00 in
Snow Depth Not available.
6:52 AM 3:54 PM
Waxing Crescent, 22% visible
METAR KBHB 041056Z AUTO 34007KT 10SM OVC034 M01/M06 A3005 RMK AO2 SLP180 T10061061 FZRANO
Pressure 30.06 in
Visibility 10.0 miles
Clouds Overcast 3400 ft
Windchill 31 °F
Dew Point 24 °F
Humidity 74%
Rainfall 0.00 in
Snow Depth Not available.
6:52 AM 3:54 PM
Waxing Crescent, 22% visible
METAR KBHB 041056Z AUTO 34007KT 10SM OVC034 M01/M06 A3005 RMK AO2 SLP180 T10061061 FZRANO

10-Day Weather Forecast

Almanac

Astronomy

Dec. 04, 2016 Rise Set
Actual Time
Civil Twilight
Nautical Twilight
Astronomical Twilight
Moon
Length of Visible Light
Length of Day
Tomorrow will be .
, % of the Moon is Illuminated

Today's Extremes

State Highs State Lows

Community

WunderPhotos

Upload Photos

1,955,593 photos uploaded!

WunderBlog® & News

Nearby

Air Quality

  Air Quality AQ Index Pollutant
Not available.

Snow Depth

Station Depth Elevation

Earthquake Activity

City Distance Mag. Time & Date
Minimum magnitude displayed is 2.5.

Coastal Water Temperatures

Place Temperature

Stations

Nearby Weather Stations

Station Location Temp. Windchill Dew Point Humidity Wind Precip. Elev Updated Type
                   

Watches & Warnings

There are currently no watches in effect.